Weather History for KDXX - February, 2013

Change the Weather History Date:

Saturday, February 23, 2013

  Actual Average (KAQP) Record (KAQP)
Temperature  
Mean Temperature 11 °F -  
Max Temperature 21 °F 26 °F 48 °F (1998)
Min Temperature 1 °F 11 °F -11 °F (2001)
Degree Days  
Heating Degree Days 54    
Moisture  
Dew Point 7 °F    
Average Humidity 77    
Maximum Humidity 92    
Minimum Humidity 63    
Precipitation  
Precipitation 0.00 in - - ()
Sea Level Pressure  
Sea Level Pressure 29.89 in    
Wind  
Wind Speed 3 mph (SSW)    
Max Wind Speed 8 mph    
Max Gust Speed -    
Visibility 10 miles    
Events      
Averages and records for this station are not official NWS values.
T = Trace of Precipitation, MM = Missing Value Source: NWS Daily Summary

Daily Weather History Graph

Daily Weather History Graph

Search for Another Location

Airport or City:

Trip Planner

Search our weather history database for the weather conditions in past years. The results will help you decide how hot, cold, wet, or windy it might be!

Date:

Astronomy

Feb. 23, 2013 Rise Set
Actual Time 7:12 AM CST 6:04 PM CST
Civil Twilight 6:42 AM CST 6:34 PM CST
Nautical Twilight 6:08 AM CST 7:08 PM CST
Astronomical Twilight 5:34 AM CST 7:42 PM CST
Moon 4:13 PM CST (2/23) 5:38 AM CST (2/23)
Length of Visible Light 11h 51m
Length of Day
10h 52m
Waxing Gibbous, 95% of the Moon is Illuminated
Feb 23
Waxing Gibbous
Feb 25
Full
Mar 4
Last Quarter
Mar 11
New
Mar 19
First Quarter

Hourly Weather History & Observations

Time (CST) Temp. Windchill Dew Point Humidity Pressure Visibility Wind Dir Wind Speed Gust Speed Precip Events Conditions
12:14 AM 14.0 °F 6.5 °F 10.4 °F 86% 29.91 in 10.0 mi WNW 4.6 mph - N/A   Mostly Cloudy
12:33 AM 14.0 °F 5.1 °F 8.6 °F 79% 29.91 in 10.0 mi NW 5.8 mph - N/A   Clear
12:54 AM 14.0 °F 8.2 °F 8.6 °F 79% 29.90 in 10.0 mi NW 3.5 mph - N/A   Mostly Cloudy
1:14 AM 14.0 °F 5.1 °F 8.6 °F 79% 29.91 in 10.0 mi West 5.8 mph - N/A   Mostly Cloudy
1:33 AM 12.2 °F 0.7 °F 8.6 °F 85% 29.91 in 10.0 mi West 8.1 mph - N/A   Scattered Clouds
1:54 AM 12.2 °F 6.1 °F 8.6 °F 85% 29.91 in 10.0 mi West 3.5 mph - N/A   Mostly Cloudy
2:14 AM 15.8 °F 7.2 °F 8.6 °F 73% 29.91 in 10.0 mi West 5.8 mph - N/A   Overcast
2:33 AM 15.8 °F 8.6 °F 8.6 °F 73% 29.90 in 10.0 mi WNW 4.6 mph - N/A   Overcast
3:14 AM 15.8 °F 7.2 °F 8.6 °F 73% 29.89 in 10.0 mi West 5.8 mph - N/A   Overcast
3:33 AM 14.0 °F 6.5 °F 8.6 °F 79% 29.89 in 10.0 mi West 4.6 mph - N/A   Overcast
3:54 AM 14.0 °F 5.1 °F 8.6 °F 79% 29.88 in 10.0 mi West 5.8 mph - N/A   Overcast
4:14 AM 14.0 °F 6.5 °F 8.6 °F 79% 29.88 in 10.0 mi West 4.6 mph - N/A   Overcast
4:34 AM 14.0 °F 6.5 °F 8.6 °F 79% 29.88 in 10.0 mi West 4.6 mph - N/A   Mostly Cloudy
4:54 AM 12.2 °F 4.3 °F 6.8 °F 79% 29.88 in 10.0 mi WNW 4.6 mph - N/A   Scattered Clouds
5:13 AM 12.2 °F 4.3 °F 6.8 °F 79% 29.88 in 10.0 mi WNW 4.6 mph - N/A   Clear
5:34 AM 10.4 °F 4.0 °F 5.0 °F 79% 29.88 in 10.0 mi West 3.5 mph - N/A   Clear
5:54 AM 8.6 °F - 5.0 °F 85% 29.88 in 10.0 mi Calm Calm - N/A   Clear
6:13 AM 10.4 °F - 6.8 °F 85% 29.88 in 10.0 mi Calm Calm - N/A   Clear
6:34 AM 10.4 °F - 6.8 °F 85% 29.87 in 10.0 mi Calm Calm - N/A   Clear
6:53 AM 6.8 °F - 3.2 °F 85% 29.88 in 10.0 mi Calm Calm - N/A   Clear
7:14 AM 6.8 °F - 1.4 °F 79% 29.88 in 10.0 mi Calm Calm - N/A   Clear
7:34 AM 6.8 °F - 1.4 °F 79% 29.88 in 10.0 mi Calm Calm - N/A   Clear
7:53 AM 3.2 °F -6.2 °F 1.4 °F 92% 29.88 in 10.0 mi WSW 4.6 mph - N/A   Clear
8:13 AM 5.0 °F - 1.4 °F 85% 29.88 in 10.0 mi Calm Calm - N/A   Clear
8:34 AM 5.0 °F -2.1 °F 1.4 °F 85% 29.87 in 10.0 mi WSW 3.5 mph - N/A   Clear
8:53 AM 6.8 °F - 1.4 °F 79% 29.88 in 10.0 mi Calm Calm - N/A   Clear
9:13 AM 6.8 °F -0.1 °F 1.4 °F 79% 29.88 in 10.0 mi SW 3.5 mph - N/A   Clear
9:34 AM 8.6 °F - 1.4 °F 73% 29.88 in 10.0 mi Calm Calm - N/A   Clear
9:53 AM 10.4 °F - 3.2 °F 73% 29.88 in 10.0 mi Calm Calm - N/A   Clear
10:13 AM 10.4 °F - 5.0 °F 79% 29.88 in 10.0 mi Calm Calm - N/A   Clear
10:34 AM 14.0 °F - 6.8 °F 73% 29.88 in 10.0 mi Calm Calm - N/A   Clear
10:53 AM 15.8 °F - 6.8 °F 68% 29.88 in 10.0 mi Calm Calm - N/A   Clear
11:13 AM 15.8 °F - 8.6 °F 73% 29.88 in 10.0 mi Calm Calm - N/A   Clear
11:34 AM 15.8 °F - 8.6 °F 73% 29.88 in 10.0 mi Calm Calm - N/A   Clear
11:53 AM 17.6 °F - 8.6 °F 68% 29.88 in 10.0 mi Calm Calm - N/A   Clear
12:13 PM 17.6 °F - 10.4 °F 73% 29.88 in 10.0 mi Calm Calm - N/A   Clear
12:34 PM 19.4 °F - 10.4 °F 68% 29.87 in 10.0 mi Calm Calm - N/A   Clear
12:54 PM 19.4 °F - 10.4 °F 68% 29.87 in 10.0 mi Calm Calm - N/A   Clear
1:13 PM 19.4 °F 14.3 °F 10.4 °F 68% 29.87 in 10.0 mi ESE 3.5 mph - N/A   Clear
1:34 PM 19.4 °F 14.3 °F 10.4 °F 68% 29.87 in 10.0 mi ESE 3.5 mph - N/A   Clear
1:54 PM 21.2 °F - 10.4 °F 63% 29.87 in 10.0 mi Calm Calm - N/A   Clear
2:13 PM 21.2 °F 16.4 °F 10.4 °F 63% 29.86 in 10.0 mi SE 3.5 mph - N/A   Clear
2:34 PM 21.2 °F 16.4 °F 10.4 °F 63% 29.86 in 10.0 mi SE 3.5 mph - N/A   Clear
2:54 PM 21.2 °F 14.9 °F 10.4 °F 63% 29.86 in 10.0 mi SSE 4.6 mph - N/A   Clear
3:13 PM 21.2 °F 16.4 °F 12.2 °F 68% 29.86 in 10.0 mi South 3.5 mph - N/A   Clear
3:34 PM 21.2 °F 16.4 °F 12.2 °F 68% 29.86 in 10.0 mi South 3.5 mph - N/A   Clear
3:54 PM 21.2 °F 16.4 °F 12.2 °F 68% 29.86 in 10.0 mi South 3.5 mph - N/A   Clear
4:13 PM 19.4 °F 14.3 °F 12.2 °F 74% 29.86 in 10.0 mi SE 3.5 mph - N/A   Clear
4:34 PM 19.4 °F 14.3 °F 12.2 °F 74% 29.86 in 10.0 mi SE 3.5 mph - N/A   Clear
4:54 PM 19.4 °F 14.3 °F 10.4 °F 68% 29.86 in 10.0 mi SE 3.5 mph - N/A   Clear
5:13 PM 17.6 °F 9.3 °F 10.4 °F 73% 29.86 in 10.0 mi East 5.8 mph - N/A   Clear
5:34 PM 17.6 °F 9.3 °F 10.4 °F 73% 29.86 in 10.0 mi East 5.8 mph - N/A   Clear
5:54 PM 14.0 °F 5.1 °F 8.6 °F 79% 29.86 in 10.0 mi East 5.8 mph - N/A   Clear
6:13 PM 12.2 °F 2.9 °F 6.8 °F 79% 29.87 in 10.0 mi East 5.8 mph - N/A   Clear
6:54 PM 12.2 °F 4.3 °F 6.8 °F 79% 29.89 in 10.0 mi SE 4.6 mph - N/A   Clear
7:13 PM 12.2 °F 4.3 °F 6.8 °F 79% 29.89 in 10.0 mi SE 4.6 mph - N/A   Clear
7:34 PM 12.2 °F 6.1 °F 6.8 °F 79% 29.90 in 10.0 mi SSE 3.5 mph - N/A   Clear
7:54 PM 6.8 °F - 1.4 °F 79% 29.90 in 10.0 mi Calm Calm - N/A   Clear
8:13 PM 6.8 °F -0.1 °F 1.4 °F 79% 29.90 in 10.0 mi East 3.5 mph - N/A   Clear
8:34 PM 6.8 °F - 3.2 °F 85% 29.90 in 10.0 mi Calm Calm - N/A   Clear
8:54 PM 8.6 °F - 5.0 °F 85% 29.91 in 10.0 mi Calm Calm - N/A   Clear
9:13 PM 8.6 °F - 3.2 °F 79% 29.91 in 10.0 mi Calm Calm - N/A   Clear
9:34 PM 8.6 °F - 5.0 °F 85% 29.91 in 10.0 mi Calm Calm - N/A   Clear
9:53 PM 6.8 °F - 5.0 °F 92% 29.92 in 10.0 mi Calm Calm - N/A   Clear
10:33 PM 1.4 °F - -2.2 °F 85% 29.93 in 10.0 mi Calm Calm - N/A   Clear
10:54 PM 3.2 °F - -0.4 °F 85% 29.94 in 10.0 mi Calm Calm - N/A   Clear
11:14 PM 5.0 °F - 1.4 °F 85% 29.94 in 4.0 mi Calm Calm - N/A   Clear
11:33 PM 1.4 °F - -2.2 °F 85% 29.94 in 0.8 mi Calm Calm - N/A   Mist
11:54 PM 3.2 °F - -0.4 °F 85% 29.94 in 0.8 mi Calm Calm - N/A   Mist